[[{"header":{"parameterUnit":"m.s-1","parameterCategory":1,"la1":30.2991,"la2":30.254,"lo1":-89.0895,"lo2":-89.0444,"dy":0.0017,"dx":0.0017,"nx":28,"ny":28,"refTime":"2024-06-24T03:00:00:Z","depth":0,"parameterNumber":2,"parameterNumberName":"U-component_of_WINDS"},"data":[0,0,0,0,0,0,0,0,0,0,0,0,0,0,0,0,0,0,0,0,0,0,0,0,0,0,0,0,0,0,0,0,0,0,0,0,0,0,0,0,0,0,0,0,0,0,0,0,0,0,0,0,0,0,0,0,0,0,1.5592,1.5593,0,1.5669,1.567,1.5671,1.5679,1.5678,1.5677,1.5676,1.5755,1.5758,1.576,0,0,0,0,0,0,0,0,0,0,0,0,0,1.5451,1.5454,1.5592,1.5593,1.5594,1.5669,1.567,1.5671,1.5679,1.5678,1.5677,1.5676,1.5754,1.5757,1.5761,0,0,0,0,0,0,0,0,0,0,0,0,0,1.5519,1.5454,1.5592,1.5607,1.5609,1.5669,1.567,1.5671,1.5679,1.5678,1.5676,1.5675,1.5753,1.5757,1.5761,1.5811,0,0,1.5774,1.5776,0,0,0,0,0,0,0,0,1.5515,1.5524,1.5603,1.5606,1.5608,1.5663,1.5649,1.5718,1.5679,1.5652,1.5676,1.5675,1.5725,1.5732,1.5749,1.5815,1.5818,1.5775,1.5777,1.5779,1.578,0,0,0,0,0,0,0,1.551,1.552,1.5622,1.5605,1.5607,1.561,1.5618,1.5662,1.5694,1.5654,1.5655,1.5664,1.5726,1.5745,1.5751,1.582,1.5774,1.5778,1.5781,1.5783,1.5931,1.5933,0,0,0,0,0,0,1.5503,1.5516,1.562,1.5625,1.5558,1.5613,1.5622,1.5647,1.5694,1.57,1.5665,1.5664,1.5738,1.5746,1.5753,1.5815,1.5779,1.5783,1.5785,1.593,1.5932,1.5933,0,0,0,0,0,0,1.55,1.5512,1.5617,1.5571,1.5584,1.5617,1.5644,1.5649,1.5667,1.5702,1.5708,1.5678,1.5737,1.5747,1.5797,1.5818,1.5785,1.5789,1.5928,1.5931,1.5932,1.5939,0,0,0,0,0,0,1.5495,1.5511,1.553,1.5571,1.5587,1.5659,1.5645,1.5651,1.5674,1.5674,1.5716,1.5721,1.5737,1.5791,1.5801,1.5823,1.5792,1.5927,1.5929,1.5932,1.5937,1.5941,1.5944,0,0,0,0,0,1.549,1.5528,1.5531,1.5543,1.5611,1.566,1.5669,1.5686,1.5676,1.5696,1.5718,1.572,1.5814,1.5796,1.5808,1.5831,1.5925,1.5929,1.5932,1.5935,1.594,1.5944,0,0,0,0,0,0,1.5488,1.5534,1.5537,1.5589,1.5621,1.5661,1.5686,1.5691,1.5725,1.5724,1.5744,1.5753,1.5802,1.5822,1.58,1.5883,1.5869,1.5875,1.5867,1.5872,1.5876,1.5869,1.5796,0,0,0,0,0,1.5493,1.5529,1.5567,1.561,1.5626,1.5653,1.5675,1.5686,1.5719,1.5732,1.5759,1.5791,1.5828,1.5851,1.5887,1.594,1.5949,1.5963,1.5966,1.5969,1.5973,1.6003,1.6009,1.5944,1.5944,1.5944,0,0,1.5505,1.5535,1.5556,1.561,1.5636,1.5672,1.5664,1.5703,1.573,1.5738,1.5786,1.5807,1.5844,1.5896,1.592,1.5914,1.5994,1.5973,1.5975,1.5978,1.6007,1.6013,1.6019,1.5946,1.5945,1.5945,0,0,1.5545,1.5571,1.5609,1.5635,1.5674,1.5693,1.5702,1.5742,1.5756,1.5805,1.5812,1.5845,1.5908,1.5934,1.5956,1.6007,1.601,1.6019,1.6037,1.6066,1.6071,1.6076,1.6094,1.61,1.6023,1.6023,1.6023,0,1.5554,1.5609,1.5628,1.5667,1.569,1.5701,1.5739,1.5764,1.5812,1.5829,1.5822,1.5902,1.5927,1.5985,1.5998,1.6015,1.6026,1.6013,1.6069,1.6074,1.6079,1.6096,1.6102,1.6024,1.6024,1.6024,1.6024,0,1.5618,1.5656,1.5683,1.573,1.5757,1.5795,1.582,1.5846,1.5855,1.5874,1.5924,1.5956,1.5998,1.6013,1.6023,1.6073,1.6068,1.6065,1.6051,1.6085,1.6101,1.6108,1.6025,1.6025,1.6024,1.6024,0,0,1.5656,1.5715,1.5724,1.5745,1.579,1.582,1.5859,1.5901,1.5922,1.5956,1.5989,1.6044,1.6041,1.6066,1.6079,1.6104,1.6142,1.6098,1.6099,1.6104,1.6199,1.62,1.6207,1.6145,1.6146,1.6148,1.6195,0,1.57,1.577,1.5789,1.5848,1.5884,1.5895,1.5929,1.5961,1.598,1.6013,1.6035,1.6073,1.6068,1.6082,1.6108,1.6132,1.6161,1.6129,1.6176,1.6177,1.6164,1.6216,1.6216,1.626,1.6202,1.6203,1.6204,0,1.5759,1.5795,1.5858,1.5898,1.5914,1.5944,1.5985,1.6017,1.6053,1.6065,1.6093,1.6104,1.6146,1.6132,1.619,1.6167,1.6188,1.6203,1.6205,1.6208,1.6191,1.6219,1.6274,1.628,1.6214,1.6213,1.6213,0,1.5779,1.5843,1.5889,1.5907,1.5956,1.5977,1.5999,1.6034,1.6058,1.6094,1.6109,1.615,1.6171,1.6202,1.6224,1.6211,1.628,1.6267,1.6291,1.629,1.6303,1.6302,1.6361,1.6319,1.6319,1.6319,1.6319,0,1.5825,1.5863,1.5898,1.5926,1.5969,1.5992,1.6034,1.6056,1.6087,1.612,1.6132,1.6163,1.619,1.6224,1.6241,1.6286,1.6297,1.6308,1.6311,1.6306,1.6304,1.6318,1.6315,1.632,1.632,1.632,1.6319,0,1.5853,1.5879,1.593,1.5972,1.5984,1.6014,1.605,1.6078,1.6099,1.614,1.6151,1.6184,1.6225,1.625,1.6302,1.6314,1.6363,1.6367,1.6351,1.6352,1.6374,1.6371,1.6443,1.6453,1.6406,1.6406,1.6407,0,1.588,1.5909,1.5956,1.5979,1.6,1.6037,1.6062,1.6086,1.6111,1.6156,1.6178,1.622,1.6255,1.632,1.6348,1.6388,1.6392,1.6415,1.6398,1.6391,1.6391,1.6388,1.6391,1.6417,1.6417,1.6417,1.6418,0,1.5924,1.5936,1.5971,1.6012,1.6041,1.6074,1.6107,1.6125,1.6155,1.6183,1.6225,1.6252,1.6306,1.6347,1.639,1.6413,1.642,1.6423,1.643,1.6424,1.6413,1.6418,1.6357,1.6421,1.642,1.642,1.642,1.642,1.5952,1.5978,1.6015,1.6055,1.6082,1.6113,1.6141,1.6166,1.6202,1.6247,1.626,1.6304,1.634,1.6399,1.6422,1.6457,1.6454,1.6465,1.6467,1.6469,1.6469,1.6409,1.6465,1.6465,1.6465,1.6465,1.6465,0,1.5996,1.602,1.6056,1.6102,1.6133,1.6139,1.6176,1.6201,1.624,1.6274,1.6308,1.6357,1.6398,1.643,1.6472,1.6494,1.6498,1.6504,1.6502,1.6507,1.647,1.6459,1.65,1.6499,1.6499,1.6499,1.6499,1.6499,1.6022,1.6067,1.6083,1.6143,1.6167,1.6211,1.6231,1.626,1.6287,1.6341,1.6375,1.6396,1.6429,1.6474,1.6512,1.652,1.6534,1.6539,1.6548,1.6513,1.6509,1.6505,1.6495,1.6542,1.6543,1.6582,1.6582,1.6582]},{"header":{"parameterUnit":"m.s-1","parameterCategory":1,"la1":30.2991,"la2":30.254,"lo1":-89.0895,"lo2":-89.0444,"dy":0.0017,"dx":0.0017,"nx":28,"ny":28,"refTime":"2024-06-24T03:00:00:Z","depth":0,"parameterNumber":3,"parameterNumberName":"V-component_of_WINDS"},"data":[0,0,0,0,0,0,0,0,0,0,0,0,0,0,0,0,0,0,0,0,0,0,0,0,0,0,0,0,0,0,0,0,0,0,0,0,0,0,0,0,0,0,0,0,0,0,0,0,0,0,0,0,0,0,0,0,0,0,2.9582,2.9583,0,2.9703,2.9704,2.9706,2.9704,2.9703,2.9701,2.97,2.9818,2.9822,2.9827,0,0,0,0,0,0,0,0,0,0,0,0,0,2.9346,2.9351,2.9582,2.9583,2.9585,2.9703,2.9704,2.9706,2.9705,2.9703,2.9701,2.9699,2.9816,2.9822,2.9827,0,0,0,0,0,0,0,0,0,0,0,0,0,2.9456,2.9352,2.9582,2.9599,2.9601,2.9702,2.9704,2.9706,2.9705,2.9703,2.97,2.9698,2.9814,2.9821,2.9828,2.9918,0,0,2.9849,2.9852,0,0,0,0,0,0,0,0,2.945,2.9464,2.9595,2.9598,2.9601,2.9686,2.9665,2.9777,2.9706,2.9665,2.97,2.9697,2.9776,2.9786,2.9813,2.9924,2.9929,2.985,2.9854,2.9857,2.9859,0,0,0,0,0,0,0,2.9442,2.9459,2.963,2.9596,2.96,2.9599,2.9612,2.9686,2.9732,2.9669,2.9669,2.9684,2.9777,2.9807,2.9816,2.9931,2.985,2.9856,2.986,2.9863,3.0124,3.0127,0,0,0,0,0,0,2.9432,2.9453,2.9626,2.9633,2.9518,2.9605,2.962,2.9661,2.9731,2.974,2.9686,2.9683,2.9796,2.9808,2.982,2.9933,2.9857,2.9863,2.9867,3.0121,3.0125,3.0128,0,0,0,0,0,0,2.9427,2.9447,2.9621,2.9543,2.9565,2.9612,2.9658,2.9665,2.9695,2.9744,2.9752,2.9708,2.9794,2.981,2.9895,2.9937,2.9867,2.9873,3.0118,3.0122,3.0126,3.0157,0,0,0,0,0,0,2.942,2.9445,2.9481,2.9544,2.957,2.9695,2.9661,2.9669,2.9707,2.9705,2.9767,2.9775,2.9794,2.9885,2.9902,2.9945,2.9878,3.0114,3.012,3.0125,3.0152,3.0161,3.0169,0,0,0,0,0,2.9411,2.9483,2.9483,2.9503,2.9615,2.9697,2.9712,2.9733,2.9711,2.9746,2.9779,2.9773,2.9929,2.9893,2.9913,2.9958,3.0112,3.0118,3.0124,3.0148,3.016,3.0169,0,0,0,0,0,0,2.942,2.9491,2.9492,2.9586,2.9636,2.9697,2.9743,2.9744,2.98,2.9796,2.9819,2.9833,2.9918,2.9946,2.9905,3.0051,3.0018,3.0028,3.0029,3.004,3.0049,3.004,2.9884,0,0,0,0,0,2.9433,2.9496,2.9554,2.9631,2.9657,2.9695,2.9732,2.9745,2.9797,2.9817,2.9855,2.9904,2.9965,3.0004,3.0062,3.0156,3.017,3.0197,3.0206,3.0213,3.0221,3.0276,3.0289,3.0148,3.0148,3.0148,0,0,2.946,2.9507,2.9544,2.9634,2.9674,2.9738,2.9713,2.978,2.9827,2.9826,2.991,2.994,2.9996,3.0087,3.0128,3.0113,3.0264,3.0221,3.0226,3.0231,3.0283,3.0297,3.0308,3.0152,3.0152,3.0151,0,0,2.9543,2.9584,2.9655,2.9696,2.9759,2.9785,2.9802,2.9863,2.9884,2.9969,2.997,3.0026,3.0128,3.017,3.0204,3.0305,3.0302,3.0323,3.0368,3.042,3.0431,3.0441,3.0479,3.0492,3.0331,3.0332,3.0332,0,2.9568,2.9665,2.969,2.9759,2.9799,2.9804,2.9875,2.9914,2.9991,3.0018,3.0,3.0132,3.017,3.0271,3.0296,3.0323,3.0344,3.0316,3.0428,3.0438,3.0448,3.0484,3.0498,3.0334,3.0334,3.0333,3.0333,0,2.9695,2.9762,2.9811,2.9889,2.9934,3.0003,3.0038,3.0081,3.009,3.0118,3.0205,3.0251,3.032,3.0345,3.0353,3.0448,3.0437,3.0423,3.0391,3.0463,3.0498,3.0512,3.0337,3.0336,3.0336,3.0335,0,0,2.9784,2.9877,2.9895,2.9932,3.0002,3.0054,3.0124,3.0194,3.0231,3.0284,3.0344,3.0432,3.0422,3.046,3.0474,3.052,3.0599,3.0501,3.0503,3.0519,3.0709,3.072,3.0735,3.0598,3.0601,3.0603,3.0705,0,2.9875,3.0002,3.0028,3.0138,3.0201,3.0208,3.0269,3.0319,3.0347,3.0404,3.0434,3.0497,3.0477,3.0501,3.0547,3.058,3.0638,3.0573,3.0654,3.0656,3.0641,3.0753,3.0764,3.0858,3.0718,3.072,3.0722,0,2.9998,3.0058,3.0175,3.024,3.0268,3.0323,3.039,3.0444,3.0501,3.0518,3.0564,3.0573,3.0646,3.061,3.0711,3.0666,3.0701,3.0722,3.0726,3.0735,3.0694,3.0766,3.0888,3.0902,3.0743,3.0741,3.074,0,3.0054,3.0163,3.0249,3.0279,3.0357,3.0396,3.0429,3.0484,3.0525,3.0583,3.0611,3.0675,3.0711,3.0761,3.0787,3.0759,3.0887,3.0853,3.0904,3.0903,3.0931,3.0929,3.1061,3.0951,3.0951,3.0951,3.0951,0,3.0153,3.0225,3.0275,3.0328,3.0409,3.0437,3.0516,3.0549,3.0598,3.0656,3.0665,3.0719,3.0751,3.0809,3.083,3.0912,3.0927,3.0943,3.0948,3.0943,3.0942,3.0967,3.0962,3.0955,3.0954,3.0953,3.0952,0,3.0229,3.0266,3.0359,3.0426,3.0445,3.0502,3.0558,3.0609,3.0638,3.0713,3.0731,3.0776,3.0847,3.0878,3.0963,3.0978,3.1071,3.1071,3.1053,3.1055,3.1105,3.1101,3.1259,3.1282,3.1156,3.1157,3.1158,0,3.029,3.0346,3.0421,3.0462,3.0498,3.0563,3.0607,3.0637,3.0681,3.0752,3.0794,3.0866,3.0924,3.1036,3.1075,3.1141,3.1143,3.1194,3.1153,3.1147,3.1146,3.1143,3.1149,3.1202,3.1203,3.1204,3.1205,0,3.0396,3.0413,3.0476,3.0547,3.0599,3.0655,3.071,3.0743,3.0782,3.0831,3.0905,3.095,3.104,3.1111,3.118,3.1213,3.1216,3.1218,3.1233,3.1229,3.1218,3.1227,3.1075,3.1214,3.1213,3.1212,3.1212,3.1211,3.0468,3.0519,3.0581,3.0651,3.0697,3.0749,3.0801,3.0839,3.0901,3.0978,3.0991,3.107,3.1127,3.1221,3.1257,3.1318,3.1306,3.1328,3.1334,3.1339,3.1343,3.1208,3.1331,3.133,3.133,3.133,3.133,0,3.0575,3.0616,3.0681,3.076,3.0816,3.0817,3.0878,3.0925,3.0995,3.1049,3.1107,3.1193,3.1262,3.1309,3.1379,3.1419,3.1422,3.1437,3.1434,3.1443,3.1349,3.133,3.1433,3.1433,3.1433,3.1433,3.1433,3.1433,3.0638,3.0726,3.075,3.0861,3.09,3.098,3.1015,3.1064,3.1108,3.1204,3.1263,3.1293,3.1344,3.1419,3.1483,3.1495,3.1521,3.1536,3.1547,3.1459,3.1449,3.1438,3.142,3.1541,3.1541,3.1636,3.1636,3.1637]}]]